Hauptseite
METAR-TAF:

METAR-TAF

Flughäfen :

Flugplatz Pontoise-Cormeilles

Pontoise, Frankreich

Breite: 49-05-48N, Länge: 002-02-27E, Höhe: 99 m

Beobachtung

Neuester Wetterbericht von vor 33 Minuten, um 14:00 UTC
Wind 6 kt aus Nord/Nordwest, variierte zwischen West/Südwest und Nordost
Temperatur 23°C
Luftfeuchtigkeit 31%
Luftdruck 1025 hPa
Sichtweite 10 km oder mehr

METAR: LFPT 111400Z AUTO 34006KT 250V040 9999 NCD 23/05 Q1025

Zeit: 16:33 (14:33 UTC)


TAF: fehlend

Wetterbeobachtungen und Prognosen von mehr als 4000 Flughäfen (METAR und TAF Bericht).

Die verfügbaren Stationen werden durch gelbe und rote Markierungen auf der Karte dargestellt.

Führen Sie die Maus auf sie, um den Namen der Station zu sehen.

Darauf klicken, um die Beobachtung von Wetterbeobachtungen und Prognosen zu sehen.

Um die Karte zu ändern : klicken Sie auf den grünen Tasten mit einem schwarzen Kreuz Zum Vergrößern, auf den grünen Button mit einem Gedankenstrich zu verkleinern, oder auf die grünen Pfeile für benachbarte Karten.


METAR-TAF: